Flag for Saudi Arabia Weather past 2 weeks in Qatif, Saudi Arabia

Now
70 °F

Clear.


Feels Like: 70 °F
Forecast: 69 / 86 °F
Wind: 7 mph from Northwest

Location: King Fahd International Airport

Current Time: Apr 1, 2015 at 1:19:16 AM

Latest Report: Apr 1, 2015 at 12:00 AM


Visibility: 10 mi

Pressure: 29.83 "Hg

Humidity: 50%

Dew point: 50 °F

Location of QatifLocation

Historic Weather in Qatif — Graph

°F

Qatif temperature yesterday

Maximum temperature yesterday: 82 °F (at 11:00 AM)
Minimum temperature yesterday: 70 °F (at 11:00 PM)
Average temperature yesterday: 78 °F

Past Weeks' High & Low Weather Summary

 TemperatureHumidityPressure
High99 °F (Mar 30, 1:00 PM)88% (Mar 17, 5:00 AM)30.12 "Hg (Mar 17, 5:00 AM)
Low55 °F (Mar 24, 6:00 AM)11% (Mar 29, 2:00 PM)29.68 "Hg (Mar 30, 4:00 PM)
Average73 °F57%29.93 "Hg
* Reported Midnight between Mar 16 and Mar 17 — Midnight between Mar 31 and Apr 1, Qatif, Weather by CustomWeather, © 2015

Note: Actual official high and low records may vary slightly from our data, if they occured in-between our weather recording intervals... More about our weather records

Advertising

Qatif weather history for previous 24 hours

 ConditionsComfort  
Time TempWeatherWind HumidityBarometerVisibility
12:00 AM
Wed, Apr 1
70 °FClear.7 mph50%29.83 "Hg10 mi
11:00 PM
Tue, Mar 31
70 °FClear.7 mph43%29.86 "Hg10 mi
10:00 PM73 °FClear.8 mph41%29.86 "Hg10 mi
9:00 PM73 °FClear.13 mph41%29.86 "Hg10 mi
8:00 PM73 °FClear.13 mph41%29.86 "Hg10 mi
7:00 PM75 °FClear.15 mph34%29.86 "Hg5 mi
6:00 PM77 °FPassing clouds.17 mph30%29.83 "Hg4 mi
5:00 PM79 °FPartly sunny.21 mph28%29.83 "Hg3 mi
4:00 PM81 °FScattered clouds.22 mph26%29.80 "Hg3 mi
3:00 PM82 °FPartly sunny.25 mph25%29.80 "Hg2 mi
2:00 PM82 °FPartly sunny.25 mph21%29.83 "Hg2 mi
1:00 PM82 °FScattered clouds.23 mph32%29.83 "Hg1 mi
12:00 PM82 °FLow level haze.23 mph37%29.83 "Hg2 mi
11:00 AM82 °FLow level haze.24 mph32%29.86 "Hg2 mi
10:00 AM81 °FLow level haze.22 mph39%29.86 "Hg2 mi
9:00 AM79 °FScattered clouds.22 mph45%29.83 "Hg2 mi
8:00 AM77 °FLow level haze.23 mph51%29.83 "Hg2 mi
7:00 AM75 °FLow level haze.23 mph54%29.80 "Hg2 mi
6:00 AM75 °FLow level haze.20 mph57%29.77 "Hg3 mi
5:00 AM75 °FLow level haze.20 mph57%29.74 "Hg3 mi
4:00 AM77 °FLow level haze.23 mph54%29.71 "Hg3 mi
3:00 AM79 °FClear.12 mph34%29.71 "Hg4 mi
2:00 AM79 °FClear.6 mph34%29.68 "Hg4 mi
1:00 AM81 °FClear.8 mph30%29.68 "Hg4 mi
Weather by CustomWeather, © 2015

See weather overviewHow to use our weather pages